• In Czech Republic
  • List of Countries
  • For 7 days
  • Water Temperature
  • Satellite Maps
  • Weather Map
  • Weather Widgets
  • user-avatar
    Login

    Hourly Weather Shusha

    Today, 16 July, Monday

    Time Temperature Precipitation Wind Pressure Humidity
    00:00 +21°C° 0 mm 2 mps 653 mmHg 61%
    01:00 +21°C° 0 mm 2 mps 654 mmHg 63%
    02:00 +20°C° 0 mm 2 mps 654 mmHg 65%
    03:00 +20°C° 0 mm 2 mps 654 mmHg 67%
    04:00 +20°C° 0 mm 2 mps 654 mmHg 66%
    05:00 +21°C° 0 mm 2 mps 654 mmHg 64%
    06:00 +21°C° 0 mm 2 mps 655 mmHg 63%
    07:00 +23°C° 0.1 mm 2 mps 655 mmHg 58%
    08:00 +25°C° 0.1 mm 3 mps 655 mmHg 53%
    09:00 +27°C° 0.1 mm 3 mps 656 mmHg 47%
    10:00 +28°C° 0.2 mm 4 mps 656 mmHg 45%
    11:00 +28°C° 0.2 mm 4 mps 656 mmHg 42%
    12:00 +29°C° 0.2 mm 4 mps 656 mmHg 39%
    13:00 +30°C° 0.4 mm 4 mps 656 mmHg 38%
    14:00 +30°C° 0.4 mm 4 mps 656 mmHg 37%
    15:00 +32°C° 0.4 mm 4 mps 656 mmHg 35%
    16:00 +30°C° 0.3 mm 4 mps 656 mmHg 38%
    17:00 +29°C° 0.3 mm 4 mps 656 mmHg 40%
    18:00 +28°C° 0.3 mm 4 mps 656 mmHg 43%
    19:00 +26°C° 0 mm 3 mps 656 mmHg 50%
    20:00 +24°C° 0 mm 2 mps 656 mmHg 57%
    21:00 +22°C° 0 mm 1 mps 656 mmHg 64%
    22:00 +21°C° 0 mm 1 mps 656 mmHg 67%
    23:00 +21°C° 0 mm 1 mps 656 mmHg 70%

    Tomorrow, 17 July, Tuesday

    Time Temperature Precipitation Wind Pressure Humidity
    00:00 +20°C° 0 mm 1 mps 656 mmHg 73%
    01:00 +20°C° 0 mm 1 mps 656 mmHg 74%
    02:00 +20°C° 0 mm 1 mps 656 mmHg 74%
    03:00 +19°C° 0 mm 1 mps 656 mmHg 75%
    04:00 +20°C° 0 mm 1 mps 656 mmHg 73%
    05:00 +20°C° 0 mm 1 mps 657 mmHg 71%
    06:00 +21°C° 0 mm 1 mps 657 mmHg 70%
    07:00 +21°C° 0 mm 2 mps 657 mmHg 65%
    08:00 +23°C° 0 mm 2 mps 657 mmHg 59%
    09:00 +24°C° 0 mm 3 mps 658 mmHg 54%
    10:00 +25°C° 0 mm 3 mps 658 mmHg 53%
    11:00 +25°C° 0 mm 3 mps 657 mmHg 52%
    12:00 +26°C° 0 mm 3 mps 657 mmHg 51%
    13:00 +27°C° 0.1 mm 3 mps 657 mmHg 49%
    14:00 +27°C° 0.1 mm 3 mps 657 mmHg 47%
    15:00 +28°C° 0.1 mm 4 mps 657 mmHg 46%
    16:00 +28°C° 0.1 mm 3 mps 657 mmHg 48%
    17:00 +27°C° 0.1 mm 3 mps 657 mmHg 50%
    18:00 +26°C° 0.1 mm 3 mps 656 mmHg 52%
    19:00 +25°C° 0.1 mm 3 mps 657 mmHg 58%
    20:00 +23°C° 0.1 mm 2 mps 657 mmHg 63%
    21:00 +22°C° 0.1 mm 1 mps 657 mmHg 69%
    22:00 +21°C° 0 mm 1 mps 657 mmHg 71%
    23:00 +21°C° 0 mm 1 mps 657 mmHg 73%

    Day after tomorrow, 18 July, Wednesday

    Time Temperature Precipitation Wind Pressure Humidity
    00:00 +20°C° 0 mm 1 mps 657 mmHg 75%
    01:00 +20°C° 0 mm 1 mps 657 mmHg 76%
    02:00 +20°C° 0 mm 1 mps 657 mmHg 77%
    03:00 +19°C° 0 mm 1 mps 656 mmHg 77%
    04:00 +20°C° 0 mm 1 mps 657 mmHg 75%
    05:00 +20°C° 0 mm 1 mps 657 mmHg 73%
    06:00 +21°C° 0 mm 1 mps 657 mmHg 70%
    07:00 +23°C° 0 mm 1 mps 657 mmHg 63%
    08:00 +24°C° 0 mm 2 mps 658 mmHg 56%
    09:00 +26°C° 0 mm 2 mps 658 mmHg 50%
    10:00 +27°C° 0 mm 3 mps 658 mmHg 46%
    11:00 +28°C° 0 mm 3 mps 658 mmHg 43%
    12:00 +30°C° 0 mm 3 mps 657 mmHg 39%
    13:00 +30°C° 0 mm 4 mps 657 mmHg 38%
    14:00 +32°C° 0 mm 4 mps 657 mmHg 36%
    15:00 +33°C° 0 mm 4 mps 657 mmHg 35%
    16:00 +31°C° 0 mm 3 mps 656 mmHg 38%
    17:00 +30°C° 0 mm 3 mps 656 mmHg 40%
    18:00 +29°C° 0 mm 3 mps 656 mmHg 43%
    19:00 +28°C° 0 mm 2 mps 656 mmHg 49%
    20:00 +26°C° 0 mm 2 mps 656 mmHg 55%
    21:00 +24°C° 0 mm 1 mps 656 mmHg 61%
    22:00 +23°C° 0 mm 2 mps 656 mmHg 62%
    23:00 +23°C° 0 mm 2 mps 656 mmHg 63%

    19 July, Thursday

    Time Temperature Precipitation Wind Pressure Humidity
    00:00 +21°C° 0 mm 2 mps 656 mmHg 64%
    01:00 +21°C° 0 mm 2 mps 656 mmHg 65%
    02:00 +21°C° 0 mm 2 mps 656 mmHg 65%
    03:00 +21°C° 0 mm 1 mps 656 mmHg 66%
    04:00 +22°C° 0 mm 1 mps 656 mmHg 64%
    05:00 +23°C° 0 mm 1 mps 656 mmHg 62%
    06:00 +23°C° 0 mm 1 mps 657 mmHg 60%
    07:00 +25°C° 0 mm 1 mps 657 mmHg 54%
    08:00 +27°C° 0 mm 2 mps 657 mmHg 48%
    09:00 +29°C° 0 mm 2 mps 658 mmHg 42%
    10:00 +30°C° 0 mm 3 mps 658 mmHg 39%
    11:00 +33°C° 0 mm 3 mps 658 mmHg 35%
    12:00 +34°C° 0 mm 3 mps 658 mmHg 32%
    13:00 +34°C° 0 mm 3 mps 657 mmHg 31%
    14:00 +35°C° 0 mm 4 mps 657 mmHg 30%
    15:00 +36°C° 0 mm 4 mps 657 mmHg 29%
    16:00 +35°C° 0 mm 3 mps 657 mmHg 32%
    17:00 +34°C° 0 mm 3 mps 657 mmHg 34%
    18:00 +32°C° 0 mm 2 mps 656 mmHg 37%
    19:00 +30°C° 0 mm 2 mps 656 mmHg 43%
    20:00 +28°C° 0 mm 2 mps 656 mmHg 48%
    21:00 +26°C° 0 mm 1 mps 656 mmHg 54%
    22:00 +26°C° 0 mm 2 mps 656 mmHg 55%
    23:00 +25°C° 0 mm 2 mps 656 mmHg 56%

    20 July, Friday

    Time Temperature Precipitation Wind Pressure Humidity
    00:00 +25°C° 0 mm 2 mps 656 mmHg 57%
    01:00 +24°C° 0 mm 2 mps 656 mmHg 57%
    02:00 +24°C° 0 mm 2 mps 656 mmHg 57%
    03:00 +23°C° 0 mm 2 mps 656 mmHg 58%
    04:00 +24°C° 0 mm 1 mps 656 mmHg 57%
    05:00 +24°C° 0 mm 1 mps 657 mmHg 56%
    06:00 +25°C° 0 mm 1 mps 657 mmHg 56%
    07:00 +26°C° 0 mm 2 mps 657 mmHg 51%
    08:00 +28°C° 0 mm 2 mps 658 mmHg 46%
    09:00 +30°C° 0 mm 3 mps 658 mmHg 41%
    10:00 +31°C° 0 mm 3 mps 658 mmHg 38%
    11:00 +33°C° 0 mm 3 mps 658 mmHg 35%
    12:00 +35°C° 0 mm 4 mps 657 mmHg 32%
    13:00 +35°C° 0 mm 4 mps 657 mmHg 31%
    14:00 +36°C° 0 mm 4 mps 657 mmHg 30%
    15:00 +36°C° 0 mm 4 mps 656 mmHg 30%
    16:00 +35°C° 0 mm 4 mps 656 mmHg 32%
    17:00 +34°C° 0 mm 4 mps 656 mmHg 35%
    18:00 +33°C° 0 mm 4 mps 655 mmHg 38%
    19:00 +30°C° 0 mm 3 mps 655 mmHg 44%
    20:00 +27°C° 0 mm 3 mps 655 mmHg 50%
    21:00 +25°C° 0 mm 2 mps 655 mmHg 57%
    22:00 +25°C° 0 mm 2 mps 655 mmHg 58%
    23:00 +24°C° 0 mm 2 mps 655 mmHg 60%

    21 July, Saturday

    Time Temperature Precipitation Wind Pressure Humidity
    00:00 +24°C° 0 mm 2 mps 655 mmHg 62%
    01:00 +23°C° 0 mm 2 mps 655 mmHg 61%
    02:00 +23°C° 0 mm 2 mps 655 mmHg 60%
    03:00 +23°C° 0 mm 1 mps 655 mmHg 60%
    04:00 +23°C° 0 mm 1 mps 655 mmHg 57%
    05:00 +24°C° 0 mm 1 mps 655 mmHg 54%
    06:00 +24°C° 0 mm 1 mps 656 mmHg 51%
    07:00 +26°C° 0 mm 2 mps 656 mmHg 46%
    08:00 +28°C° 0 mm 2 mps 656 mmHg 42%
    09:00 +30°C° 0 mm 2 mps 657 mmHg 37%
    10:00 +31°C° 0 mm 3 mps 657 mmHg 35%
    11:00 +33°C° 0 mm 3 mps 657 mmHg 33%
    12:00 +34°C° 0 mm 3 mps 657 mmHg 30%
    13:00 +35°C° 0 mm 4 mps 656 mmHg 30%
    14:00 +35°C° 0 mm 4 mps 656 mmHg 29%
    15:00 +35°C° 0 mm 4 mps 656 mmHg 29%
    16:00 +35°C° 0.1 mm 4 mps 656 mmHg 31%
    17:00 +34°C° 0.1 mm 4 mps 656 mmHg 34%
    18:00 +33°C° 0.1 mm 4 mps 656 mmHg 37%
    19:00 +30°C° 0 mm 3 mps 656 mmHg 42%
    20:00 +27°C° 0 mm 2 mps 656 mmHg 48%
    21:00 +25°C° 0 mm 2 mps 656 mmHg 53%
    22:00 +25°C° 0 mm 2 mps 656 mmHg 54%
    23:00 +24°C° 0 mm 2 mps 656 mmHg 55%
    Show more